Simultaneous Nadir Overpasses (SNOs) Predictions

Prediction of SNOs between AQUA and GOES-15 Satellite Orbit:

Table of predicted SNOs for the next 14.0 days since TLE Epoch: 8/7/2021
Index Date Time (AQUA) AQUA Lat,Lon GOES-15 Lat,Lon Distance(km) Time Diff (sec)
1 08/07/2021 10:19:18 0.40,-130.91 -0.20,-128.08 321.30 80
2 08/09/2021 10:07:08 -0.26,-127.96 -0.20,-128.12 19.22 80
3 08/11/2021 09:54:56 -0.85,-124.99 -0.19,-128.15 359.22 80
4 08/11/2021 22:16:20 -0.22,-130.19 0.21,-128.07 240.94 80
5 08/13/2021 22:04:08 0.38,-127.23 0.21,-128.10 98.61 80
6 08/14/2021 10:25:24 0.67,-132.39 -0.22,-128.19 477.24 80
7 08/15/2021 21:51:57 1.04,-124.28 0.21,-128.12 437.31 80
8 08/16/2021 10:13:13 0.00,-129.44 -0.22,-128.22 138.73 80
9 08/18/2021 10:01:01 -0.60,-126.48 -0.23,-128.23 199.00 80
10 08/18/2021 22:22:25 -0.52,-131.67 0.25,-128.14 401.19 80
11 08/20/2021 22:10:14 0.15,-128.72 0.25,-128.15 63.94 80
